Theta_e
336 332 329 322 319 320 320 320 324 325 326 326 325 323 325 334 334 334 332 330 328 330 329 330 330 330 331 330 330 332 333 332
334 326 324 321 319 320 320 320 320 323 325 326 325 323 323 329 333 333 333 335 334 330 330 330 331 331 332 333 332 332 332 331
332 320 324 324 324 320 320 320 320 320 322 323 323 323 323 324 331 331 329 334 335 334 334 332 331 330 330 332 331 331 331 331
334 329 333 334 330 324 321 319 320 320 320 321 321 322 325 324 326 331 333 332 333 336 336 335 334 333 332 332 332 331 331 330
335 334 334 334 333 331 331 326 320 320 320 320 321 321 328 325 325 331 334 333 333 334 336 336 336 335 333 333 334 333 332 331
334 334 333 334 334 334 333 331 328 324 323 325 322 322 329 329 329 332 334 337 334 336 337 336 336 336 335 334 334 333 333 333
335 334 333 334 334 334 335 334 333 331 328 328 327 326 329 331 331 333 334 335 337 337 338 339 339 338 336 335 335 336 334 333
334 334 334 335 335 336 336 336 335 334 332 330 330 329 329 331 331 332 333 334 335 337 338 339 340 340 338 335 336 337 335 336
337 335 335 336 337 337 337 337 336 335 335 333 332 332 332 332 332 332 332 332 333 335 335 336 339 340 340 336 335 338 335 336
341 338 337 337 337 337 338 337 337 337 335 335 334 333 333 332 332 332 332 332 332 333 333 333 336 339 341 340 337 337 334 334
342 340 338 337 337 337 338 337 337 337 336 335 334 334 333 333 333 332 332 332 333 333 333 333 334 337 340 340 339 337 333 333
337 338 337 338 337 337 337 337 338 336 336 335 334 333 333 333 333 332 332 332 333 333 333 333 334 335 337 339 338 338 336 334
337 337 336 335 336 336 336 336 336 337 338 336 334 333 333 333 333 333 332 333 334 334 334 335 335 336 338 337 338 338 339 334
339 339 337 336 336 335 335 334 333 333 334 335 334 332 332 332 333 333 332 333 333 334 334 333 333 329 332 338 337 338 338 336
340 340 340 339 338 337 335 334 333 333 333 332 332 331 331 332 333 333 333 333 334 335 335 335 333 332 331 335 335 334 337 335
343 342 341 340 338 337 337 338 337 335 335 335 333 332 332 333 334 334 335 336 337 336 334 334 333 333 333 335 336 336 335 334
342 342 340 343 343 345 345 342 342 341 341 340 337 335 334 334 335 336 336 336 337 333 331 332 333 335 333 331 335 334 335 334
338 338 338 339 342 345 346 346 344 343 342 341 340 338 337 337 336 335 335 331 328 331 333 333 333 334 334 334 333 332 332 331
338 338 337 338 340 342 343 344 345 343 343 342 341 340 338 336 333 333 331 332 335 335 335 334 332 331 331 330 326 326 322 319
339 340 337 335 332 334 336 339 340 340 341 340 339 340 339 338 337 334 335 335 335 329 328 329 326 323 323 322 322 320 318 317
Wind_Speed
26 26 27 27 25 25 22 20 19 18 16 14 13 12 13 12 11 10 9 9 9 9 10 9 8 6 5 6 5 5 4 4
25 25 26 26 26 25 23 21 20 19 18 16 14 13 13 13 12 11 11 10 9 10 11 10 9 8 7 6 5 6 6 5
24 23 22 23 24 25 24 23 21 20 19 18 16 15 15 14 14 11 12 12 9 11 12 11 10 10 11 10 10 9 10 9
26 27 26 24 20 22 23 24 23 21 20 19 18 16 15 16 16 15 12 12 13 12 12 12 11 12 11 11 12 10 11 11
29 27 27 24 21 21 20 20 23 23 21 20 20 19 17 17 17 16 14 14 14 13 13 14 13 13 14 12 12 12 11 11
26 27 27 26 25 24 21 21 21 22 22 20 20 21 20 18 18 18 18 17 16 15 15 14 13 14 16 15 13 12 14 14
27 28 28 27 26 25 24 24 23 22 22 23 23 23 24 21 21 21 19 19 18 19 19 15 15 17 17 18 18 18 15 14
26 27 29 28 27 27 27 29 28 27 27 27 27 26 27 25 24 24 22 22 21 21 22 20 17 18 19 18 20 17 18 16
21 24 26 28 32 33 32 32 31 32 33 33 33 32 30 30 27 26 26 24 25 25 24 23 23 23 20 21 23 23 18 24
14 19 25 28 29 30 33 34 34 35 36 37 36 36 34 33 31 29 29 28 27 28 27 25 25 26 26 27 27 27 21 23
19 23 24 25 29 32 33 33 33 34 36 38 40 42 41 38 37 34 33 31 29 30 29 29 28 29 31 32 32 26 22 22
17 18 24 26 27 28 31 34 36 34 35 38 40 43 44 40 39 37 35 33 31 29 30 32 33 33 35 35 34 34 32 29
7 9 13 19 22 24 24 27 34 37 40 38 40 41 44 43 41 39 36 31 31 29 29 32 31 33 38 39 36 40 31 27
12 6 5 10 14 17 19 20 21 23 28 33 38 40 40 42 40 39 37 36 31 30 28 27 27 28 35 40 36 37 36 28
19 19 15 9 7 7 9 13 15 16 16 18 22 28 31 33 34 30 29 33 34 30 28 25 24 35 34 40 34 41 26 19
22 22 20 20 17 12 8 4 2 5 8 9 13 17 21 21 22 23 22 18 18 18 18 25 27 19 25 31 33 17 14 15
20 22 22 22 20 18 18 14 11 9 7 5 3 5 10 14 16 15 8 8 15 24 23 17 14 15 17 21 15 13 10 6
17 21 23 22 21 18 17 16 16 16 12 10 6 2 3 6 6 7 11 11 14 12 9 8 7 7 10 7 2 3 2 3
17 20 22 21 20 20 19 18 15 15 11 8 6 6 8 8 3 8 8 9 7 7 5 6 9 10 15 17 20 20 19 17
15 16 19 19 23 20 20 18 15 15 11 5 3 4 8 12 10 2 1 6 9 14 14 16 19 17 14 17 15 14 9 10
Wind_Direction
191 196 196 193 190 191 188 189 194 197 197 194 193 193 189 187 185 171 168 155 153 151 149 145 144 146 148 152 162 181 211 230
194 196 193 195 195 194 194 195 200 203 202 203 203 205 203 200 196 196 189 182 183 183 182 187 190 189 204 213 220 231 235 252
194 189 188 194 200 200 199 202 204 206 208 209 210 212 215 210 205 202 205 204 198 204 213 214 211 214 217 228 247 261 251 256
194 194 196 196 194 197 203 208 209 211 214 216 217 218 220 217 218 213 213 216 218 218 220 224 230 232 231 233 239 246 259 246
204 200 200 195 196 202 203 206 213 216 219 222 224 223 224 224 225 223 223 222 219 225 232 241 248 246 238 242 245 251 248 253
213 210 207 206 210 213 212 216 217 219 222 224 228 228 230 231 228 228 231 231 227 234 242 247 253 251 251 250 253 255 249 253
218 218 215 216 219 226 228 229 230 231 231 232 232 231 232 235 234 234 237 239 240 242 247 253 259 260 263 258 254 256 254 254
221 223 225 226 231 237 240 242 243 241 241 241 240 239 236 238 240 242 243 244 245 248 253 255 253 259 261 262 255 261 258 265
237 233 234 241 244 246 247 248 247 248 246 245 244 245 244 243 244 247 247 249 250 251 254 256 252 252 256 256 252 258 264 265
250 249 250 247 247 250 251 254 255 255 253 252 253 254 252 252 253 255 254 253 252 252 252 256 257 254 253 254 251 251 265 255
266 265 264 263 260 260 257 259 259 260 258 256 255 254 253 255 255 257 256 256 257 254 255 257 259 255 254 257 261 249 260 276
278 271 272 270 276 277 270 264 260 259 258 254 255 256 257 261 260 261 260 259 257 254 256 257 261 262 257 258 266 263 254 272
319 291 274 265 263 269 272 270 266 261 259 261 261 257 257 259 260 260 264 259 254 255 254 256 260 271 275 270 267 268 266 269
31 17 295 278 280 278 271 267 269 268 265 264 264 264 260 257 258 261 260 261 260 256 254 257 257 267 273 274 274 272 267 258
44 48 47 39 12 343 307 286 280 272 272 271 270 268 265 262 261 265 271 269 268 269 269 273 280 281 263 267 277 293 255 273
47 49 46 52 51 41 26 359 298 251 254 269 271 266 266 265 264 271 279 290 271 251 262 286 300 282 280 275 266 269 299 302
44 46 47 51 54 56 56 65 79 76 60 37 335 283 269 272 269 276 283 259 275 298 302 307 293 262 273 288 286 294 300 270
43 46 48 50 49 55 59 62 69 67 65 67 71 109 217 236 231 260 282 303 314 324 340 333 332 324 301 284 50 44 327 108
44 48 48 54 59 56 59 58 62 55 55 66 98 147 181 188 241 300 295 318 6 6 7 84 75 83 82 85 78 79 77 74
41 42 46 59 66 62 63 63 64 66 64 85 122 194 238 264 283 291 81 43 70 90 84 88 90 89 86 82 83 79 75 72